GFSSW_250_rhum_273.txt.gz
RH
84 83 83 65 62 58 57 46 47 46 42 37 35 31 30 28 23 19 20 17 18 16 15 11 8 9 8 96 49 69 91 87 26 6 7 9 85 100 96 95 76 16 13 15 11
61 94 89 68 70 62 58 53 54 50 46 41 38 32 33 30 25 21 22 19 19 17 18 10 9 10 9 53 38 99 84 95 43 95 19 8 34 92 54 79 94 23 9 16 9
47 78 100 62 65 56 65 63 59 53 48 43 40 37 34 32 28 26 23 22 21 19 16 10 10 10 8 13 42 80 71 90 85 92 100 8 33 48 100 85 62 50 10 9 10
78 92 74 78 62 54 57 60 60 56 52 47 44 42 39 36 33 31 25 24 24 19 13 10 12 8 7 42 69 53 77 78 84 76 50 42 20 43 94 85 70 62 40 7 10
100 93 97 87 63 71 70 51 68 52 53 49 47 42 41 41 40 36 31 27 25 19 13 11 9 8 8 84 99 100 100 84 82 67 80 59 68 40 78 95 76 49 66 40 7
100 100 100 100 95 90 75 58 69 56 53 44 43 43 49 45 36 38 37 30 25 18 13 12 10 8 10 90 100 100 89 85 100 85 57 45 45 67 65 55 94 57 58 72 35
100 100 93 86 74 71 78 40 60 68 65 49 57 65 50 45 37 43 39 32 24 17 12 12 8 11 22 96 100 100 84 100 100 100 51 36 31 78 98 34 41 65 56 61 76
86 93 82 75 99 60 50 45 52 63 64 67 73 49 49 39 42 44 38 29 24 17 12 11 8 11 74 60 92 100 98 100 99 71 100 100 88 16 9 11 16 32 62 64 59
37 67 72 50 82 91 68 65 74 76 67 55 57 56 57 48 43 44 36 26 24 16 14 10 9 25 80 98 100 98 100 76 95 100 100 100 100 39 27 7 8 11 15 50 69
58 37 58 95 97 74 52 91 78 85 80 60 52 43 37 37 44 43 31 26 22 18 14 10 13 41 49 86 99 100 100 100 100 100 81 64 87 95 99 81 57 38 14 17 86
85 56 44 89 100 99 68 76 100 100 84 64 51 47 37 34 38 35 29 26 22 18 13 10 33 83 32 87 72 99 100 100 100 94 72 52 81 100 100 100 45 53 43 10 25
85 74 36 50 95 100 100 100 100 93 77 61 51 48 39 34 32 36 28 24 23 17 12 9 13 38 54 20 41 68 67 99 92 100 64 43 32 100 100 100 75 77 34 12 49
71 82 57 45 67 95 100 100 100 91 72 62 47 47 34 31 33 31 27 25 22 18 12 9 12 24 46 13 10 30 60 56 72 83 74 39 35 87 85 100 81 97 40 32 13
32 46 73 47 58 76 85 79 86 84 72 57 50 43 30 31 33 27 27 24 19 19 12 11 10 14 11 10 14 26 72 96 100 84 60 18 95 82 82 89 64 100 64 22 12
21 38 51 64 53 49 47 48 55 62 59 49 45 33 30 32 31 25 26 22 19 20 12 12 13 14 17 13 9 12 51 76 100 80 20 26 69 100 93 100 100 100 100 26 11
22 21 31 42 47 52 53 49 54 58 53 49 42 28 31 32 27 22 23 20 20 18 14 13 18 19 23 14 13 11 10 20 31 25 40 44 92 100 97 100 98 66 63 44 21
20 21 23 28 38 36 41 43 46 50 47 44 31 32 31 27 26 22 20 20 16 15 14 13 18 35 42 12 13 12 13 18 38 54 86 52 41 100 73 60 45 41 35 35 27
15 17 22 30 30 29 31 36 47 41 38 32 30 31 29 26 22 20 19 18 12 15 14 14 19 19 19 17 15 13 14 20 25 96 62 98 54 58 28 22 90 68 44 20 19
12 15 15 22 22 29 31 44 48 38 23 27 29 28 24 23 18 18 19 13 12 15 14 14 16 21 18 18 18 18 14 14 11 15 19 33 98 96 69 95 100 91 56 9 10
13 12 10 12 14 20 31 46 39 26 33 32 32 29 22 18 16 18 17 11 13 15 15 14 16 24 19 18 19 21 23 20 15 24 59 37 65 61 34 98 100 100 22 11 11
16 15 10 9 8 13 30 38 27 27 32 34 27 20 17 17 17 18 16 11 13 15 15 15 16 24 20 20 21 23 22 20 20 18 19 16 27 46 21 20 41 51 29 15 9
21 16 16 9 8 10 23 27 23 30 31 29 19 19 21 20 20 19 13 10 13 15 16 16 17 25 23 26 24 24 25 25 26 32 26 14 24 14 14 14 15 17 20 40 31
29 21 17 14 10 11 19 19 21 24 24 21 20 17 15 15 15 16 12 12 14 14 18 18 18 24 26 26 24 28 29 25 26 31 34 22 16 16 18 17 14 9 98 100 100
30 27 18 14 17 14 17 18 18 21 25 20 18 16 15 13 13 15 10 13 12 17 17 18 18 26 27 26 25 33 26 30 32 34 31 24 23 18 22 20 22 17 13 91 94
28 26 22 16 16 14 11 16 19 18 20 17 16 15 13 10 12 13 8 14 13 18 18 18 19 22 27 30 24 28 30 30 30 37 38 24 17 18 19 22 26 21 18 17 15
36 22 32 30 20 20 17 16 17 17 17 15 13 12 11 11 13 12 8 14 14 20 21 19 20 21 26 27 26 30 26 22 26 35 30 23 23 23 23 22 28 23 24 17 14
38 34 36 38 30 24 20 17 14 13 14 12 12 11 10 11 10 10 10 13 14 17 20 25 22 22 32 26 26 32 25 21 23 38 25 25 28 24 19 20 24 27 24 18 12

GFSSW_250_rhum_276.txt.gz
RH
67 73 76 62 56 50 50 45 42 40 40 36 38 36 34 32 30 29 21 16 14 11 11 9 8 7 8 8 95 100 64 76 92 62 12 24 100 80 70 72 59 9 21 9 12
79 63 73 65 60 55 51 49 48 46 46 41 40 39 36 35 31 30 20 19 15 12 10 9 8 10 8 48 91 91 93 85 78 58 44 17 46 69 79 79 58 12 10 10 12
85 76 81 73 65 62 62 56 55 48 49 47 48 44 40 38 34 33 22 21 18 13 11 10 9 9 12 81 72 99 94 100 66 47 38 48 33 39 68 71 56 39 8 10 11
100 77 94 92 81 74 69 66 58 59 58 54 49 46 43 38 32 34 24 24 20 15 12 12 10 9 9 55 60 100 100 98 87 68 62 56 47 45 82 58 58 42 22 9 11
98 100 76 87 85 82 74 64 66 67 63 57 53 51 46 42 36 34 25 26 21 15 13 11 12 9 9 40 70 100 83 67 67 100 87 53 56 60 46 40 78 42 49 19 8
59 91 80 89 90 72 60 53 58 57 69 56 54 55 42 44 38 34 29 27 22 15 15 12 11 9 10 15 72 78 79 49 62 94 100 88 77 52 66 30 31 50 38 53 34
100 70 64 72 76 86 65 54 73 54 72 55 58 49 47 41 45 34 33 25 26 16 14 11 10 11 18 79 69 100 74 60 100 100 95 80 100 98 12 9 13 33 50 45 51
72 62 70 100 99 94 83 74 90 63 71 71 73 56 50 55 44 40 34 30 27 17 16 13 8 11 37 80 64 100 98 52 60 87 100 100 100 100 93 47 9 9 33 59 67
74 83 97 100 100 100 100 79 93 72 53 51 73 64 52 50 43 37 34 34 26 18 17 14 10 16 67 98 100 100 68 89 58 68 98 100 91 100 79 92 58 29 15 16 42
69 100 99 100 100 97 94 82 71 63 62 80 76 67 55 51 38 34 33 32 23 19 18 13 11 18 36 78 86 88 96 100 64 94 100 100 100 100 94 100 99 94 42 14 21
39 72 100 100 100 96 83 100 67 66 78 78 89 78 62 46 42 34 32 28 26 23 17 12 11 15 49 52 84 90 100 100 100 100 100 85 88 100 70 70 100 100 100 49 75
59 48 72 93 91 83 54 59 92 74 86 87 74 76 61 52 45 35 29 25 24 26 16 12 10 16 59 47 35 30 78 84 85 84 98 60 66 91 88 78 100 100 100 100 93
90 56 45 42 56 71 59 79 98 64 77 86 90 89 65 53 46 33 28 26 25 24 17 13 10 12 20 22 14 10 40 48 44 100 88 68 67 77 87 99 89 80 67 56 70
51 82 57 55 38 38 50 100 99 82 86 100 100 87 66 59 48 34 29 28 25 22 18 15 10 10 32 21 10 10 9 26 100 88 79 52 57 88 86 97 100 82 65 93 83
27 67 80 64 79 51 38 99 100 100 100 100 100 84 74 55 45 32 30 30 27 20 17 17 11 11 14 16 13 11 12 29 52 39 44 51 33 44 79 54 45 55 71 78 74
23 27 57 85 80 63 37 63 85 98 100 99 91 78 63 45 43 30 32 31 28 20 18 16 13 11 46 18 12 14 15 9 12 69 75 67 51 100 72 34 75 90 93 81 80
27 27 25 44 71 70 68 44 59 75 82 73 62 59 54 47 44 30 31 30 25 20 18 14 13 28 46 36 11 11 10 10 9 25 20 23 56 91 86 88 61 76 93 100 65
28 28 26 29 28 52 68 76 57 55 58 52 48 47 51 47 34 28 32 29 21 20 16 14 14 15 15 19 12 11 12 14 20 19 31 28 26 45 43 60 67 94 100 100 100
21 27 26 28 20 28 46 62 62 53 44 44 46 48 47 42 30 32 31 26 20 19 14 14 15 15 17 16 13 12 13 16 15 14 11 18 15 20 46 44 74 76 86 100 100
15 16 23 26 23 26 42 59 48 45 45 44 43 38 34 31 33 34 28 21 18 19 12 15 16 16 15 18 15 14 13 17 15 14 16 18 43 26 53 45 51 100 98 99 73
17 13 13 17 23 23 49 44 29 30 30 36 37 42 39 36 33 30 22 19 19 18 12 14 16 16 15 18 16 16 17 14 13 15 17 17 15 17 14 16 20 56 96 97 39
25 17 13 11 13 27 45 34 21 29 26 31 41 46 37 30 27 25 19 18 19 17 14 15 15 17 17 18 15 17 16 15 13 11 16 17 14 20 18 14 15 16 24 89 65
26 23 17 12 12 22 31 18 17 22 20 26 37 41 29 26 27 21 17 19 21 16 15 15 14 17 18 19 19 16 18 14 17 13 12 18 17 18 20 19 20 20 18 27 53
29 23 21 18 15 15 16 13 11 14 14 23 35 29 27 28 21 18 17 19 20 16 13 13 14 16 16 20 20 19 17 16 20 18 11 14 17 16 16 17 16 14 14 16 22
32 28 25 23 20 17 14 10 7 8 13 20 25 23 26 23 21 17 20 17 17 15 14 12 14 15 16 20 22 18 16 13 18 22 18 16 16 18 17 23 29 20 16 14 19
31 33 35 31 26 26 17 16 15 8 10 14 21 22 22 19 19 16 16 13 13 11 14 13 13 15 16 18 19 23 21 17 23 28 23 27 18 20 19 18 19 16 11 12 13
30 34 37 35 28 27 18 15 15 8 8 14 16 18 19 19 15 12 14 13 13 11 12 14 13 15 15 17 17 23 16 18 22 32 19 25 33 21 18 21 26 24 16 13 10

GFSSW_250_rhum_279.txt.gz
RH
30 34 47 49 56 58 50 47 42 41 41 41 38 35 34 32 29 25 20 17 15 16 11 9 8 8 38 43 31 54 70 44 48 54 19 40 58 66 59 52 13 17 9 13 13
55 70 62 62 66 60 51 46 43 43 43 43 42 40 37 34 32 26 22 18 15 23 14 9 8 9 24 38 29 47 69 63 58 54 36 38 52 70 68 55 22 10 10 11 13
70 87 78 69 65 60 54 51 47 46 46 45 44 41 42 41 34 29 22 17 16 28 17 10 8 9 13 45 38 42 63 58 52 59 44 49 47 74 67 59 40 8 10 13 14
63 89 90 84 65 60 57 53 53 52 52 53 49 46 48 44 40 28 21 18 19 31 19 9 8 8 8 13 53 57 78 56 69 83 49 59 77 73 52 63 48 24 8 14 13
67 85 86 91 74 64 60 59 58 58 56 56 52 52 52 47 42 28 24 22 23 34 21 10 9 8 8 9 60 46 61 68 81 66 52 92 82 82 54 35 54 50 19 8 14
68 98 76 78 84 74 70 67 72 63 63 60 62 56 55 52 42 34 30 26 28 35 25 13 9 8 7 14 69 50 65 77 97 58 62 77 97 94 26 24 44 59 40 46 11
38 96 99 70 85 90 83 78 78 69 66 69 67 55 58 54 38 37 34 33 32 33 23 16 10 7 7 19 80 69 55 74 100 54 46 56 71 100 78 9 11 32 51 46 80
37 48 98 86 84 100 84 95 89 67 64 56 73 53 61 49 37 41 31 32 31 32 22 18 11 8 10 19 93 92 65 67 100 56 42 45 70 100 74 63 21 14 18 35 43
41 50 77 100 85 91 84 84 74 59 78 56 61 60 66 55 38 45 34 33 33 28 20 18 12 9 12 27 72 93 91 54 98 90 56 42 95 92 72 70 50 60 24 22 34
56 66 59 99 94 82 91 96 74 63 80 72 75 70 61 67 52 47 37 33 35 26 19 17 12 9 9 23 98 100 92 90 99 80 88 95 74 86 83 57 64 72 87 63 40
47 84 100 70 83 70 85 83 100 82 98 81 69 60 77 67 59 55 39 38 32 24 20 18 11 8 9 19 56 79 84 90 94 79 58 92 86 82 84 58 67 71 78 86 80
42 54 100 92 74 73 87 100 100 94 86 87 59 76 72 71 69 56 46 41 28 24 22 17 14 9 10 12 23 50 32 51 64 80 88 100 100 100 83 97 76 59 71 88 99
46 49 79 69 90 99 100 100 100 92 83 63 62 82 85 74 69 63 48 44 27 24 21 16 15 11 11 25 20 30 19 16 37 42 100 97 80 94 100 100 100 72 62 64 62
41 43 57 85 100 100 100 100 89 85 94 78 76 80 80 69 84 69 55 45 27 23 21 14 16 10 10 15 30 13 11 10 12 55 98 96 91 71 84 96 85 87 61 54 85
43 40 47 91 100 100 100 100 95 68 58 78 72 74 85 89 91 73 58 43 28 23 22 16 15 13 10 11 11 14 11 12 13 22 81 100 90 66 40 51 46 43 48 62 73
33 44 44 54 71 84 100 100 91 77 53 93 87 73 99 100 90 70 58 44 27 24 24 17 16 12 12 34 60 38 10 12 10 10 43 52 59 79 47 50 66 57 60 56 60
26 44 49 64 55 62 78 77 69 65 83 100 92 99 100 99 86 68 52 45 32 24 23 17 15 11 12 24 41 13 10 11 10 13 21 26 53 89 99 90 74 76 74 86 73
23 42 55 85 89 59 61 59 56 38 70 100 100 100 100 94 74 57 48 47 27 26 22 16 16 10 11 12 17 20 14 11 11 12 22 25 31 39 32 43 51 82 87 98 86
25 24 29 37 72 89 81 85 78 40 42 78 93 94 99 80 62 48 42 45 28 24 20 17 13 10 11 13 15 16 15 12 11 13 14 22 22 52 59 79 74 75 72 72 68
27 26 28 29 36 70 92 91 75 76 53 54 61 63 68 63 52 42 43 37 28 24 21 19 13 10 12 12 14 15 12 15 15 15 16 23 45 31 34 32 44 29 44 64 79
30 30 34 27 29 41 57 58 68 72 74 76 60 51 53 52 49 46 37 30 29 25 19 19 16 11 13 12 13 14 15 18 16 16 17 18 21 20 23 21 21 25 26 26 37
28 32 37 32 33 44 51 29 26 41 57 64 65 61 55 49 48 34 32 34 29 26 19 19 18 12 12 12 13 15 18 16 15 19 20 19 22 23 24 24 23 26 26 24 28
18 22 33 37 41 49 49 30 23 22 27 38 46 50 52 48 41 35 34 34 31 25 20 22 16 12 12 12 14 13 16 17 16 20 21 20 19 22 24 23 24 22 22 22 19
17 17 18 26 37 42 40 25 23 22 22 30 35 35 38 39 40 34 32 35 32 22 20 20 16 12 11 16 15 13 13 14 20 23 23 19 20 19 18 20 17 16 17 17 17
25 24 21 19 18 24 27 23 20 19 17 23 27 31 34 40 37 37 30 33 28 22 20 18 18 12 11 16 16 14 12 15 17 22 26 19 17 21 20 20 16 16 13 12 15
31 35 30 30 24 22 20 16 13 13 17 21 27 28 28 33 30 36 33 32 26 20 17 18 17 14 12 14 17 16 15 14 21 24 25 22 15 17 20 25 21 16 14 14 14
45 37 33 31 30 33 29 19 14 14 14 17 18 20 27 22 24 29 33 31 25 23 20 19 17 13 12 14 16 17 18 18 35 28 32 32 17 15 15 16 16 14 15 12 11

GFSSW_250_rhum_282.txt.gz
RH
14 15 15 16 21 31 32 44 46 57 47 44 40 37 32 26 24 23 27 26 14 13 14 10 9 8 7 17 42 40 73 64 52 45 47 57 69 82 62 12 12 9 12 13 14
12 16 21 21 31 41 36 46 51 50 44 42 41 38 33 29 25 26 30 27 15 10 11 12 10 8 7 10 35 47 60 76 56 62 46 52 60 59 68 27 10 10 13 12 13
13 17 25 26 41 50 53 48 53 46 42 42 42 40 34 32 24 29 34 30 19 10 11 14 10 8 7 9 19 41 42 70 74 63 76 80 52 33 60 55 16 10 15 14 14
18 19 25 48 48 58 60 56 49 45 44 44 45 41 40 36 30 33 35 35 25 11 13 12 11 8 7 9 16 23 41 56 66 67 59 82 57 73 39 57 63 12 11 14 14
17 39 34 56 65 64 64 60 51 47 47 46 49 45 44 43 39 37 38 40 30 13 12 11 12 9 8 15 58 52 71 92 56 92 68 95 84 52 33 35 60 63 11 11 12
19 43 52 70 74 70 66 62 56 54 53 53 52 49 48 48 51 38 39 43 32 17 13 12 11 9 8 16 43 66 100 89 68 40 56 50 57 70 13 15 28 65 37 15 13
21 26 58 84 84 74 68 64 61 58 58 54 53 52 58 53 54 42 39 42 28 20 13 14 11 9 8 31 70 73 80 66 51 47 46 43 43 63 57 18 11 22 51 24 16
21 26 43 94 90 91 69 65 67 64 64 61 60 60 62 58 54 41 40 42 30 19 19 14 12 10 9 16 82 73 68 54 59 54 47 54 76 56 67 62 55 23 43 46 40
19 23 34 75 87 91 84 72 78 74 74 75 65 61 76 61 52 49 43 45 36 24 21 14 13 10 9 16 42 84 97 66 66 79 76 83 96 86 76 68 52 28 28 36 46
22 22 30 68 77 95 88 88 93 88 86 81 62 56 71 54 56 48 55 53 37 26 20 15 15 12 9 13 36 100 100 94 83 78 73 76 84 85 71 77 56 50 30 33 24
26 22 27 49 99 86 87 100 86 86 100 80 63 64 71 67 61 55 59 59 46 33 19 17 15 11 10 10 13 58 84 64 54 74 85 98 84 85 87 87 68 66 65 50 63
27 21 24 49 100 93 77 100 100 90 74 77 65 76 75 68 59 68 72 63 50 38 21 18 16 11 8 9 14 16 22 25 21 18 48 65 86 100 94 100 97 100 76 62 67
26 23 26 34 68 99 98 82 87 84 82 67 57 88 78 64 62 70 68 66 60 40 24 18 16 14 10 10 12 22 20 15 15 13 30 42 94 100 91 100 100 100 100 84 85
25 28 34 43 62 71 99 100 70 78 89 99 91 80 74 66 72 65 66 79 68 44 26 22 18 15 14 11 12 13 13 13 15 17 44 72 100 100 96 93 79 97 98 78 92
24 33 38 62 69 80 91 86 73 70 100 100 82 79 75 61 67 71 67 83 72 46 30 23 19 17 13 12 15 15 12 12 13 31 54 84 100 100 100 100 73 56 70 60 60
23 39 43 76 80 85 85 77 71 77 97 100 88 88 75 70 65 67 78 88 73 45 42 23 20 18 12 12 12 15 13 13 13 17 59 100 100 100 100 98 88 90 82 46 31
25 43 44 76 100 99 85 100 96 98 100 100 86 78 67 71 55 67 90 96 72 49 40 23 19 16 13 11 11 12 13 14 13 15 41 52 68 69 74 70 40 37 33 38 51
29 42 45 47 80 100 92 95 100 99 100 92 80 59 47 77 74 75 100 95 65 47 39 22 20 17 14 13 13 15 13 14 13 17 27 23 24 18 23 28 28 24 30 42 48
27 37 58 48 58 80 80 98 100 100 100 100 83 69 58 86 89 100 100 81 61 42 40 22 18 17 14 14 15 15 16 18 18 16 15 16 19 17 15 15 19 25 26 24 23
24 42 68 44 57 65 92 90 91 100 100 97 84 70 73 100 100 100 97 73 58 42 36 24 19 17 14 13 17 18 21 21 22 15 16 20 17 17 18 17 19 22 22 21 22
28 37 55 54 57 58 74 83 76 73 88 86 66 46 71 100 100 95 82 71 57 41 32 24 19 18 16 12 17 19 22 22 21 18 22 23 23 20 19 17 19 19 21 21 22
32 34 39 55 64 66 53 45 48 54 51 54 47 46 48 67 74 71 57 56 49 40 28 28 19 16 17 12 17 17 19 25 21 18 18 20 23 24 21 25 25 23 22 18 16
34 37 33 52 81 76 63 62 64 67 56 53 49 64 60 64 61 57 52 48 44 35 29 29 21 16 17 14 16 17 16 21 27 26 20 18 20 21 21 19 24 23 23 25 26
40 37 39 38 74 80 72 58 64 76 83 82 76 78 85 94 80 73 63 52 46 32 29 32 20 17 19 15 15 15 17 20 26 25 26 18 18 18 18 22 24 23 24 21 16
45 43 43 43 47 51 48 34 34 44 57 66 70 66 73 78 72 63 56 54 39 36 34 34 20 18 20 18 14 15 17 18 25 25 27 24 19 16 18 21 20 23 21 19 17
36 45 47 44 47 49 47 35 33 37 43 47 41 34 46 54 62 68 57 49 40 40 39 35 25 19 21 20 14 15 18 18 19 26 26 25 19 17 18 18 17 18 18 19 19
44 35 40 48 47 50 47 39 35 39 41 46 42 43 55 40 40 43 36 34 38 43 39 36 30 23 21 20 17 16 17 19 18 20 21 20 16 14 15 18 16 16 16 21 22

GFSSW_250_rhum_285.txt.gz
RH
15 12 10 12 13 14 20 26 34 35 39 41 38 41 38 39 35 31 21 19 16 14 11 10 12 10 8 19 47 50 55 53 41 48 50 59 47 47 10 11 12 11 53 46 21
18 13 10 13 13 14 19 24 33 35 42 46 43 41 39 41 39 34 22 19 18 16 12 11 13 11 8 8 31 50 55 50 50 47 73 66 35 45 14 12 16 14 15 16 16
21 16 9 14 14 13 21 26 29 36 46 43 43 42 42 43 43 42 24 18 19 18 13 12 12 11 8 8 15 44 59 64 50 42 63 56 41 42 41 10 16 18 16 15 15
26 17 10 12 15 14 20 32 33 37 46 45 42 44 42 47 49 44 30 18 20 20 16 12 13 10 8 7 19 53 50 68 60 59 67 48 18 18 46 46 12 13 15 14 16
28 22 11 10 14 15 25 35 41 41 48 45 43 44 43 51 54 49 39 18 24 22 16 11 13 10 7 7 20 53 60 76 52 53 47 55 34 11 25 50 42 13 13 16 19
29 25 14 11 15 17 31 40 48 47 49 46 44 47 49 50 53 53 45 22 24 22 16 15 13 11 8 14 28 62 94 95 53 48 52 49 53 54 13 21 60 39 14 15 20
26 27 17 11 13 23 40 44 54 54 51 48 47 50 55 52 57 58 42 28 27 29 18 17 13 11 9 33 62 72 85 74 70 48 60 54 54 62 68 25 52 62 47 14 13
23 28 20 13 16 31 46 48 57 58 55 50 54 57 53 53 59 63 39 27 38 35 21 16 14 11 9 18 79 81 68 67 64 66 58 64 71 59 84 70 25 27 54 68 33
18 30 25 20 29 31 56 54 62 60 59 56 60 59 55 54 66 60 38 32 43 45 26 17 15 12 8 10 30 73 87 89 88 69 64 72 70 67 74 79 68 38 31 50 63
18 27 29 17 40 49 72 65 67 63 63 61 66 67 62 62 73 61 42 38 53 53 30 16 18 13 9 9 11 49 100 97 81 86 80 81 94 91 62 71 78 77 62 46 53
12 23 29 19 47 55 75 68 65 68 66 70 75 72 66 59 62 61 52 47 62 59 34 16 19 14 12 10 13 18 31 56 45 30 22 84 100 94 77 75 79 76 78 68 50
10 18 28 22 32 55 78 72 66 70 75 82 78 77 73 52 64 72 49 53 64 65 40 19 19 16 14 9 11 22 22 16 11 13 24 82 95 100 88 86 75 83 91 88 60
8 12 25 26 26 59 84 85 73 74 78 88 99 94 62 80 57 68 45 58 77 73 56 25 21 18 14 10 11 14 13 11 11 13 30 76 100 76 96 91 91 99 99 90 70
8 10 21 27 23 35 75 88 79 88 75 87 96 86 50 76 54 70 53 60 71 80 66 34 22 18 14 11 14 28 14 10 10 11 18 51 78 99 93 92 87 66 75 91 58
10 9 17 26 26 22 55 73 85 81 94 84 74 54 67 68 84 82 56 60 71 89 69 38 23 20 16 10 12 17 11 11 13 14 26 71 99 100 100 100 100 90 65 68 57
10 10 17 27 27 24 41 69 71 73 85 95 55 70 90 87 85 73 54 56 70 95 71 39 24 21 16 10 12 15 13 13 12 14 35 58 85 86 82 72 80 62 24 27 48
10 12 18 24 26 41 33 73 76 59 66 77 67 92 100 93 82 74 60 58 72 100 77 43 29 23 18 10 12 13 14 13 14 14 22 30 31 29 34 26 29 33 34 41 42
11 13 18 23 29 42 43 60 89 94 84 74 66 90 98 93 87 78 73 65 84 100 73 48 34 25 19 11 12 12 13 14 18 17 18 16 17 16 17 15 16 18 20 17 14
13 14 20 22 28 40 49 46 55 68 99 76 68 92 100 92 82 72 82 80 92 93 68 52 35 25 21 13 13 12 13 15 17 17 16 15 14 14 16 16 18 22 19 16 12
15 17 21 24 29 46 54 56 49 66 86 73 70 100 100 91 85 68 69 78 100 89 66 57 36 25 21 16 15 14 14 19 18 17 14 13 13 14 16 16 19 17 15 15 13
19 20 23 30 37 49 64 72 72 67 88 70 92 100 100 92 80 64 68 89 100 88 70 57 34 24 21 18 19 17 19 21 23 21 18 14 13 12 16 18 18 18 18 20 19
22 24 30 38 61 60 77 86 90 71 97 100 97 100 100 100 88 61 70 100 95 78 60 53 34 27 20 22 19 22 19 24 28 26 23 21 19 17 17 19 20 23 20 24 21
25 28 37 51 65 67 74 98 100 92 86 100 100 100 100 100 89 69 73 98 92 71 57 47 34 30 23 22 18 18 21 26 32 32 29 26 21 17 18 20 25 26 26 25 23
29 32 41 66 68 67 81 84 98 82 67 99 100 100 100 100 81 46 48 66 66 61 54 49 34 28 25 24 20 16 20 23 31 31 30 25 19 19 19 24 27 26 28 26 22
39 42 44 74 76 69 58 68 93 84 82 99 94 88 83 74 59 57 64 60 61 62 62 54 31 29 28 28 25 18 17 22 24 26 25 23 18 18 20 25 27 28 25 25 23
49 50 42 63 91 84 71 72 79 77 81 90 94 78 72 74 65 57 75 82 84 73 62 56 31 32 34 32 28 24 18 18 21 20 19 18 17 16 19 21 24 23 25 24 22
53 53 46 48 79 92 86 82 83 67 62 69 77 86 84 97 97 88 81 81 76 65 49 48 33 33 38 31 26 24 20 16 16 17 19 19 17 16 17 18 18 21 22 20 19

GFSSW_250_rhum_288.txt.gz
RH
19 15 15 11 9 12 13 16 20 26 26 27 39 42 41 41 36 28 23 21 19 14 11 11 10 10 9 8 30 42 59 53 41 56 67 36 48 14 11 10 29 41 61 52 35
18 18 16 13 10 11 13 14 16 21 28 27 40 41 43 42 37 31 26 24 20 14 13 13 10 11 9 7 12 44 68 57 51 53 54 52 37 39 12 12 30 34 26 24 22
19 17 17 17 12 10 13 13 17 20 27 28 41 41 45 44 41 33 28 29 23 18 15 13 10 11 9 7 14 44 59 54 51 52 58 31 31 48 17 15 14 15 14 15 20
19 20 18 19 14 10 12 13 16 20 28 30 44 44 46 46 40 36 31 34 26 21 16 12 12 12 8 9 38 68 66 54 58 58 54 22 20 39 42 16 14 15 18 19 21
17 19 23 21 16 10 12 13 16 21 28 34 43 43 48 47 44 38 34 38 29 24 21 13 14 12 9 19 48 76 77 55 57 55 49 65 15 14 28 42 15 14 16 21 22
18 27 25 24 19 11 12 14 17 21 31 36 47 44 48 47 46 37 36 38 31 30 26 13 14 12 9 18 64 88 86 60 59 62 46 61 70 40 17 39 38 14 14 18 17
16 23 25 23 22 13 11 15 16 24 34 40 48 45 47 50 48 37 35 39 33 35 30 14 14 12 8 17 49 81 72 58 52 62 52 56 60 70 56 20 56 39 14 14 21
14 16 20 22 24 15 11 17 21 29 38 44 50 47 49 55 52 40 35 41 36 42 35 16 14 13 9 11 45 87 80 71 78 75 76 66 62 62 69 41 27 47 54 20 16
13 13 16 21 26 19 14 21 31 35 43 50 49 49 52 59 54 43 35 38 43 53 41 19 16 14 10 9 16 56 82 74 93 87 73 79 68 68 64 66 57 54 46 46 39
13 12 14 17 24 24 15 25 38 42 49 53 51 50 58 65 54 40 36 37 52 64 52 29 17 15 12 8 11 22 68 89 95 77 51 65 85 93 73 87 75 72 74 60 62
14 12 12 16 20 24 15 26 49 57 54 57 58 53 61 62 60 46 44 41 58 64 56 35 17 16 14 10 13 17 20 38 46 36 20 46 90 57 78 83 100 92 94 88 81
16 15 12 13 18 21 18 30 62 64 57 60 64 58 65 66 64 52 45 47 58 72 61 48 19 17 15 11 11 14 14 14 11 11 15 58 66 95 78 100 89 100 90 94 82
13 14 14 13 16 21 20 23 60 67 61 64 65 66 69 74 66 53 59 60 56 72 76 64 26 18 16 10 12 15 14 11 11 15 24 52 76 58 99 59 91 76 100 96 85
10 12 15 12 14 23 22 28 60 73 67 70 67 73 83 83 63 58 52 59 58 72 86 72 29 18 16 11 12 16 12 10 11 13 37 83 72 97 100 100 99 51 57 49 57
8 9 9 11 12 23 26 25 67 75 69 71 70 78 85 87 56 65 56 73 56 76 88 83 35 18 16 12 9 12 12 10 10 12 18 50 94 99 85 74 42 38 49 38 63
5 7 9 11 13 18 25 28 67 69 63 74 75 86 91 87 61 71 79 84 57 68 89 85 53 20 17 12 9 11 11 11 11 11 15 24 28 30 33 34 43 36 42 42 63
5 8 10 11 10 17 23 22 54 70 74 80 86 96 100 90 55 64 81 78 62 64 92 87 67 26 18 15 9 11 13 11 10 12 15 19 25 22 32 25 23 21 22 21 26
5 6 8 10 12 16 23 21 47 92 94 84 92 81 91 57 50 90 95 84 71 65 100 83 68 34 19 16 9 11 13 11 10 12 17 22 25 19 19 20 22 18 15 14 15
5 6 8 9 12 15 21 21 51 100 100 100 100 99 89 53 81 100 95 82 79 75 97 78 69 47 21 16 11 11 13 9 10 14 18 19 20 21 22 21 18 16 16 17 16
6 7 8 9 11 16 20 20 38 98 100 96 99 100 98 52 94 100 99 85 80 78 92 76 68 57 24 20 14 10 11 10 12 14 17 18 18 18 20 19 18 19 21 23 22
7 7 9 10 12 16 20 22 25 61 100 85 67 90 99 57 92 100 100 75 64 81 95 79 68 54 29 23 18 11 11 11 14 18 19 22 20 20 20 21 18 20 21 22 22
9 8 10 12 15 21 19 28 27 43 100 95 95 98 87 68 84 100 100 80 65 77 100 78 61 50 32 26 20 13 12 12 15 18 18 19 22 20 20 20 20 21 23 25 21
10 11 15 16 18 21 29 44 47 45 97 100 100 96 84 73 78 100 92 79 69 88 100 76 60 48 36 31 26 18 16 17 19 20 20 18 20 21 22 23 24 28 26 23 23
12 15 20 22 29 30 31 52 80 80 69 98 98 97 87 82 100 100 96 85 71 63 100 81 64 52 41 32 28 25 18 20 22 23 20 21 20 21 25 27 28 28 28 23 23
15 25 32 26 32 34 40 55 90 87 66 56 84 88 76 82 100 100 100 90 76 65 86 79 64 54 42 36 30 28 26 18 21 25 22 18 20 21 26 29 29 30 30 26 24
20 37 38 33 51 55 54 56 89 71 70 95 100 100 100 100 94 89 96 86 81 53 60 61 63 62 50 40 40 26 28 25 18 19 18 17 16 18 20 24 29 29 27 26 24
23 49 42 38 47 61 55 68 91 75 99 100 89 99 100 100 100 100 99 95 77 60 73 77 76 67 57 39 42 35 29 26 24 18 15 16 16 16 17 17 20 25 23 21 21

GFSSW_250_rhum_291.txt.gz
RH
20 20 18 15 14 10 11 14 23 24 31 32 43 43 38 30 33 31 29 22 20 17 14 12 9 9 8 6 19 98 61 61 40 32 50 39 28 12 15 20 14 30 50 58 29
16 18 19 18 15 14 10 11 14 19 25 31 36 46 40 30 35 34 29 24 22 16 15 13 10 9 8 8 17 95 76 64 44 37 25 39 38 12 16 34 42 42 44 32 24
16 18 18 20 18 16 12 9 13 14 18 29 33 42 44 31 38 36 31 24 22 16 15 15 10 9 8 15 44 70 89 63 52 46 14 29 42 16 16 16 22 23 20 19 23
16 16 16 18 19 16 15 10 11 14 14 22 33 43 41 35 40 40 33 25 22 17 16 18 10 10 9 15 53 82 57 61 51 55 24 18 37 45 14 16 16 15 17 21 25
13 14 14 15 19 17 16 12 10 13 15 21 32 44 38 38 41 44 38 29 22 19 15 18 10 10 9 16 53 88 60 58 50 52 60 29 19 35 39 14 15 19 19 20 34
10 12 12 12 18 19 16 15 11 12 15 22 33 45 39 40 43 46 42 33 23 22 17 19 10 11 8 14 70 100 73 61 59 50 58 69 74 37 34 37 15 16 22 22 30
11 10 11 13 14 18 20 17 12 12 16 21 34 44 40 41 44 47 45 35 26 25 21 20 11 12 8 12 37 89 78 57 71 71 62 65 70 62 33 52 40 17 20 22 23
12 12 12 12 14 16 22 20 12 14 17 26 36 44 40 41 45 49 48 37 28 28 25 22 11 13 8 28 19 65 88 64 79 72 76 100 66 67 57 32 54 55 33 18 20
15 12 11 12 13 16 24 24 13 14 20 32 46 45 44 44 46 55 50 38 30 27 28 25 12 12 64 100 97 36 75 66 64 65 78 71 55 82 80 67 60 57 45 54 36
18 16 13 12 12 20 27 26 15 12 21 38 49 46 46 46 47 61 52 38 30 28 32 29 13 18 13 87 79 14 51 49 66 87 71 47 74 85 76 96 91 80 70 54 43
16 18 17 12 13 18 25 27 18 12 24 47 54 50 49 47 49 63 53 36 32 35 39 38 19 25 12 10 9 15 22 27 38 38 40 100 100 88 74 76 79 79 82 87 69
17 16 17 15 12 14 19 23 23 19 40 57 54 53 49 46 54 67 61 42 35 47 46 42 28 17 14 10 11 12 19 12 12 12 16 80 76 100 100 100 97 100 100 94 78
18 16 16 15 13 12 16 23 25 17 43 54 55 53 52 52 61 65 65 49 41 52 57 46 36 19 14 11 12 14 13 12 10 12 13 53 72 70 100 69 68 84 98 100 100
22 18 14 16 14 12 13 22 27 24 48 59 58 57 56 55 66 71 58 51 49 56 64 53 51 24 15 12 9 12 12 12 11 10 27 76 67 100 100 100 100 75 56 64 84
23 19 16 14 17 10 14 21 30 24 38 58 59 58 62 64 73 76 56 48 56 60 65 53 59 43 16 14 9 10 11 11 12 16 32 53 78 85 90 51 24 24 29 29 36
21 19 16 13 14 13 12 17 28 22 32 66 65 62 68 70 78 78 62 54 66 83 61 54 71 55 17 14 9 11 19 13 13 92 18 18 23 19 16 17 22 25 32 33 44
14 13 10 12 12 12 11 14 21 27 35 71 71 67 73 79 85 82 67 70 79 83 57 59 82 58 20 14 10 11 87 44 62 14 14 15 25 17 20 20 20 18 17 19 31
6 6 8 8 10 9 10 12 18 40 63 77 73 75 78 78 88 82 64 60 77 77 80 67 80 59 37 15 10 14 100 84 27 16 13 15 22 20 22 21 20 19 16 15 16
3 4 5 8 7 7 9 11 23 46 65 77 77 76 84 82 95 93 69 62 86 78 77 65 75 64 51 17 14 11 13 12 42 11 15 18 19 20 20 19 19 19 17 15 13
2 2 4 7 6 6 8 14 22 21 48 72 82 81 86 100 100 98 54 74 98 76 77 74 78 70 57 21 16 97 39 47 99 13 15 17 19 22 20 20 23 23 22 18 16
3 2 5 6 6 7 9 10 15 29 89 99 91 84 97 100 100 81 66 84 91 76 81 72 88 73 59 34 16 15 13 100 31 13 14 15 20 23 21 21 23 22 22 19 19
3 3 6 6 7 10 8 9 22 51 73 100 94 88 97 100 95 67 76 100 100 86 74 62 92 71 64 39 19 16 13 11 86 100 20 18 22 27 28 24 24 24 19 19 20
3 5 7 7 8 10 9 12 33 54 70 100 100 100 100 100 100 81 63 95 98 85 72 80 77 76 65 55 31 20 17 12 84 98 15 14 19 26 27 26 24 22 24 23 21
4 7 8 9 8 8 9 25 37 36 37 99 100 95 100 100 100 87 58 83 99 92 73 72 92 80 67 61 46 28 20 19 12 12 11 12 15 17 21 26 27 26 24 24 23
6 9 8 9 12 17 15 31 41 36 53 100 100 100 100 98 100 81 53 74 96 96 81 72 75 91 70 58 49 35 28 22 21 15 11 11 11 14 18 20 22 25 26 25 23
11 13 11 11 13 13 19 20 31 40 41 81 100 100 100 74 76 78 69 66 100 96 81 78 68 83 78 58 56 41 32 29 24 23 19 14 12 14 17 20 21 24 25 24 22
17 16 14 16 23 26 32 55 51 53 37 47 74 100 100 82 77 78 56 66 100 97 88 87 80 70 65 62 64 52 38 35 30 26 23 20 19 15 16 18 20 19 19 18 17